Details From BIKF - Keflavik Nas
To BGSF - Kangerlussuaq
Flight Number -
Tags Decoded
Created
Modified
Stats Distance 718 nm / 1,329 km
Max Altitude 0 ft / 0 m
Waypoints 2
Social Downloads 1
Likes 0
Share VATSIM

Download

Looking for another format? Having issues loading an existing format? Contact us
Advertisement - Login to hide

Notes

Decoded

Route

BIKF BGSF

ID Type Via Altitude Latitude Longitude Leg Dist Tot Dist Heading (true) Name
O BIKF APT - 0 ft / 0 m 63.96448˚ -22.60545˚ - 0 nm - -
O BGSF APT - 0 ft / 0 m 67.00561˚ -50.74307˚ 717 nm 717 nm 297° / 271° -

Altitude Profile

Advertisement - Login to hide

Weather


0- 5 10 15 20 25 30 35+ Temperature / ° C

Clouds and Precipitation
Forecast for 2017-12-14 00:00 UTC. Updated 2 minutes ago

Ground ~20,000 ft ~40,000 ft Winds

BIKF

Details ICAO BIKF (KEF)
Name Keflavik
Region Iceland
Timezone Atlantic/Reykjavik (UTC+0.0)
Stats Elevation 170 ft / 52 m (AMSL)
Location 63.981612° -22.614563°
Runways 2
Magnetic Variation 14.068° W

METAR

BIKF 132100Z 05005KT CAVOK M00/M02 Q0986

Decode

TAF

TAF BIKF 131948Z 1321/1421 02008KT CAVOK TXM00/1400Z TNM05/1407Z

Decode

Departure Runways

ID Width Length Bearing (true) Bearing (mag) Surface Threshold Offset Overrun Length
02 197 ft / 60 m 9,997 ft / 3,047 m 0.02° 14.09° Asphalt 0 ft / 0 m 492 ft / 150 m
11 197 ft / 60 m 10,022 ft / 3,055 m 89.97° 104.04° Asphalt 0 ft / 0 m 246 ft / 75 m
20 197 ft / 60 m 9,997 ft / 3,047 m 180.02° 194.09° Asphalt 0 ft / 0 m 98 ft / 30 m
29 197 ft / 60 m 10,022 ft / 3,055 m 270.02° 284.09° Asphalt 0 ft / 0 m 197 ft / 60 m

BGSF

Details ICAO BGSF (SFJ)
Name Kangerlussuaq
Region Greenland
Timezone America/Godthab (UTC-3.0)
Stats Elevation 165 ft / 50 m (AMSL)
Location 67.011605° -50.714721°
Runways 2
Magnetic Variation 29.036° W

METAR

BGSF 132050Z AUTO 07008KT 9999NDV FEW075/// SCT100/// BKN130/// BKN160/// M12/M14 Q1017

Decode

TAF

TAF AMD TAF AMD BGSF 131346Z 1313/1401 06005KT 9999 SCT040 BKN090 TEMPO 1313/1401 30012KT 3000 -SN BKN020

Decode

Destination Runways

ID Width Length Bearing (true) Bearing (mag) Surface Threshold Offset Overrun Length
09 197 ft / 60 m 9,169 ft / 2,795 m 61.57° 90.61° Asphalt 0 ft / 0 m 509 ft / 155 m
10 197 ft / 60 m 9,187 ft / 2,800 m 61.55° 90.59° Asphalt 0 ft / 0 m 0 ft / 0 m
27 197 ft / 60 m 9,169 ft / 2,795 m 241.63° 270.67° Asphalt 0 ft / 0 m 171 ft / 52 m
28 197 ft / 60 m 9,187 ft / 2,800 m 241.60° 270.64° Asphalt 0 ft / 0 m 0 ft / 0 m

Approach Navaids

Runway Type Ident Frequency Range Bearing (true) Bearing (mag) Slope Elevation
10 Localiser ISF 109.55 MHz 18 nm / 33 km 61.60° 90.64° - 165 ft / 50 m (AMSL)
10 DME ISF 109.55 MHz 18 nm / 33 km - - - 172 ft / 52 m (AMSL)

Popular Alternatives